Time,TemperatureF,DewpointF,PressureIn,WindDirection,WindDirectionDegrees,WindSpeedMPH,WindSpeedGustMPH,Humidity,HourlyPrecipIn,Conditions,Clouds,dailyrainin,SoftwareType,DateUTC
2013-04-21 00:00:00,38.5,2.0,30.35,North,0,0.0,0.0,21,0.00,,FEW070,0.00,VWS V14.00,2013-04-21 04:00:00,
2013-04-21 00:14:00,37.8,1.4,30.38,North,0,0.0,0.0,21,0.00,,CLR,0.00,VWS V14.00,2013-04-21 04:14:00,
2013-04-21 00:30:00,37.4,1.0,30.38,North,0,0.0,0.0,21,0.00,,CLR,0.00,VWS V14.00,2013-04-21 04:30:00,
2013-04-21 00:45:00,37.0,1.7,30.38,North,0,0.0,0.0,22,0.00,,CLR,0.00,VWS V14.00,2013-04-21 04:45:00,
2013-04-21 01:00:00,36.7,1.4,30.38,North,0,0.0,0.0,22,0.00,,CLR,0.00,VWS V14.00,2013-04-21 05:00:00,
2013-04-21 01:15:00,35.8,0.7,30.38,North,0,0.0,0.0,22,0.00,,CLR,0.00,VWS V14.00,2013-04-21 05:15:00,
2013-04-21 01:30:00,36.1,1.0,30.38,North,0,0.0,0.0,22,0.00,,CLR,0.00,VWS V14.00,2013-04-21 05:30:00,
2013-04-21 01:45:00,35.6,0.5,30.38,North,0,0.0,0.0,22,0.00,,CLR,0.00,VWS V14.00,2013-04-21 05:45:00,
2013-04-21 02:00:00,36.1,1.0,30.41,North,0,0.0,0.0,22,0.00,,CLR,0.00,VWS V14.00,2013-04-21 06:00:00,
2013-04-21 02:15:00,35.1,0.1,30.41,North,0,0.0,0.0,22,0.00,,CLR,0.00,VWS V14.00,2013-04-21 06:15:00,
2013-04-21 02:30:00,34.9,-0.1,30.41,North,0,0.0,0.0,22,0.00,,CLR,0.00,VWS V14.00,2013-04-21 06:30:00,
2013-04-21 02:45:00,34.5,-0.4,30.41,North,0,0.0,0.0,22,0.00,,CLR,0.00,VWS V14.00,2013-04-21 06:45:00,
2013-04-21 03:00:00,34.7,-0.2,30.41,North,0,0.0,0.0,22,0.00,,CLR,0.00,VWS V14.00,2013-04-21 07:00:00,
2013-04-21 03:15:00,34.0,-0.9,30.41,North,0,0.0,0.0,22,0.00,,CLR,0.00,VWS V14.00,2013-04-21 07:15:00,
2013-04-21 03:30:00,33.6,-0.2,30.41,North,0,0.0,0.0,23,0.00,,CLR,0.00,VWS V14.00,2013-04-21 07:30:00,
2013-04-21 03:45:00,32.5,-1.1,30.41,North,0,0.0,0.0,23,0.00,,CLR,0.00,VWS V14.00,2013-04-21 07:45:00,
2013-04-21 04:00:00,31.3,-2.2,30.44,North,0,0.0,0.0,23,0.00,,CLR,0.00,VWS V14.00,2013-04-21 08:00:00,
2013-04-21 04:15:00,30.2,-3.1,30.44,North,0,0.0,0.0,23,0.00,,CLR,0.00,VWS V14.00,2013-04-21 08:15:00,
2013-04-21 04:30:00,29.8,-1.7,30.44,North,0,0.0,0.0,25,0.00,,CLR,0.00,VWS V14.00,2013-04-21 08:30:00,
2013-04-21 04:45:00,30.2,1.0,30.44,North,0,0.0,0.0,28,0.00,,CLR,0.00,VWS V14.00,2013-04-21 08:45:00,
2013-04-21 05:00:00,29.5,0.4,30.44,North,0,0.0,0.0,28,0.00,,CLR,0.00,VWS V14.00,2013-04-21 09:00:00,
2013-04-21 05:15:00,29.1,0.1,30.44,North,0,0.0,0.0,28,0.00,,CLR,0.00,VWS V14.00,2013-04-21 09:15:00,
2013-04-21 05:30:00,28.2,1.5,30.47,North,0,0.0,0.0,31,0.00,,CLR,0.00,VWS V14.00,2013-04-21 09:30:00,
2013-04-21 05:45:00,28.6,1.8,30.47,North,0,0.0,0.0,31,0.00,,CLR,0.00,VWS V14.00,2013-04-21 09:45:00,
2013-04-21 06:00:00,27.7,1.7,30.47,North,0,0.0,0.0,32,0.00,,CLR,0.00,VWS V14.00,2013-04-21 10:00:00,
2013-04-21 06:15:00,27.5,2.8,30.47,North,0,0.0,0.0,34,0.00,,CLR,0.00,VWS V14.00,2013-04-21 10:15:00,
2013-04-21 06:30:00,27.3,3.3,30.50,North,0,0.0,0.0,35,0.00,,CLR,0.00,VWS V14.00,2013-04-21 10:30:00,
2013-04-21 06:45:00,27.9,3.8,30.50,North,0,0.0,0.0,35,0.00,,CLR,0.00,VWS V14.00,2013-04-21 10:45:00,
2013-04-21 07:00:00,28.4,5.5,30.50,North,0,0.0,0.0,37,0.00,,CLR,0.00,VWS V14.00,2013-04-21 11:00:00,
2013-04-21 07:15:00,29.7,6.6,30.53,North,0,0.0,0.0,37,0.00,,CLR,0.00,VWS V14.00,2013-04-21 11:15:00,
2013-04-21 07:30:00,31.5,8.2,30.53,North,0,0.0,0.0,37,0.00,,CLR,0.00,VWS V14.00,2013-04-21 11:30:00,
2013-04-21 07:44:00,33.3,7.9,30.53,North,0,0.0,0.0,34,0.00,,CLR,0.00,VWS V14.00,2013-04-21 11:44:00,
2013-04-21 07:59:00,35.6,8.0,30.56,North,0,0.0,0.0,31,0.00,,CLR,0.00,VWS V14.00,2013-04-21 11:59:00,
2013-04-21 08:14:00,37.0,6.2,30.56,North,0,0.0,0.0,27,0.00,,CLR,0.00,VWS V14.00,2013-04-21 12:14:00,
2013-04-21 08:29:00,38.1,4.5,30.56,North,0,0.0,0.0,24,0.00,,CLR,0.00,VWS V14.00,2013-04-21 12:29:00,
2013-04-21 08:44:00,39.0,5.3,30.56,North,0,0.0,0.0,24,0.00,,CLR,0.00,VWS V14.00,2013-04-21 12:44:00,
2013-04-21 08:59:00,39.2,2.6,30.56,North,0,0.0,0.0,21,0.00,,CLR,0.00,VWS V14.00,2013-04-21 12:59:00,
2013-04-21 09:14:00,40.3,3.5,30.56,North,0,0.0,0.0,21,0.00,,CLR,0.00,VWS V14.00,2013-04-21 13:14:00,
2013-04-21 09:29:00,41.0,4.1,30.56,North,0,0.0,0.0,21,0.00,,CLR,0.00,VWS V14.00,2013-04-21 13:29:00,
2013-04-21 09:44:00,41.9,4.8,30.56,North,0,0.0,0.0,21,0.00,,CLR,0.00,VWS V14.00,2013-04-21 13:44:00,
2013-04-21 09:59:00,43.7,5.3,30.56,North,0,0.0,0.0,20,0.00,,CLR,0.00,VWS V14.00,2013-04-21 13:59:00,
2013-04-21 10:14:00,44.1,5.6,30.56,North,0,0.0,0.0,20,0.00,,CLR,0.00,VWS V14.00,2013-04-21 14:14:00,
2013-04-21 10:30:00,45.1,6.5,30.56,North,0,0.0,0.0,20,0.00,,CLR,0.00,VWS V14.00,2013-04-21 14:30:00,
2013-04-21 10:44:00,46.6,6.5,30.59,North,0,0.0,0.0,19,0.00,,CLR,0.00,VWS V14.00,2013-04-21 14:44:00,
2013-04-21 11:00:00,47.1,7.0,30.56,North,0,0.0,0.0,19,0.00,,CLR,0.00,VWS V14.00,2013-04-21 15:00:00,
2013-04-21 11:14:00,46.8,6.7,30.56,North,0,0.0,0.0,19,0.00,,CLR,0.00,VWS V14.00,2013-04-21 15:14:00,
2013-04-21 11:29:00,48.0,7.7,30.56,North,0,0.0,0.0,19,0.00,,CLR,0.00,VWS V14.00,2013-04-21 15:29:00,
2013-04-21 11:44:00,49.3,8.8,30.56,North,0,0.0,0.0,19,0.00,,CLR,0.00,VWS V14.00,2013-04-21 15:44:00,
2013-04-21 11:59:00,49.3,8.8,30.56,North,0,0.0,0.0,19,0.00,,CLR,0.00,VWS V14.00,2013-04-21 15:59:00,
2013-04-21 12:14:00,50.5,9.8,30.56,North,0,0.0,0.0,19,0.00,,CLR,0.00,VWS V14.00,2013-04-21 16:14:00,
2013-04-21 12:29:00,50.0,9.4,30.56,North,0,0.0,0.0,19,0.00,,CLR,0.00,VWS V14.00,2013-04-21 16:29:00,
2013-04-21 12:44:00,49.6,9.1,30.56,North,0,0.0,0.0,19,0.00,,CLR,0.00,VWS V14.00,2013-04-21 16:44:00,
2013-04-21 12:59:00,52.0,9.8,30.56,North,0,0.0,0.0,18,0.00,,CLR,0.00,VWS V14.00,2013-04-21 16:59:00,
2013-04-21 13:14:00,50.5,9.8,30.56,North,0,0.0,0.0,19,0.00,,FEW044,0.00,VWS V14.00,2013-04-21 17:14:00,
2013-04-21 13:29:00,50.9,10.1,30.53,North,0,0.0,0.0,19,0.00,,FEW044,0.00,VWS V14.00,2013-04-21 17:29:00,
2013-04-21 13:44:00,54.1,11.6,30.53,North,0,0.0,0.0,18,0.00,,FEW044,0.00,VWS V14.00,2013-04-21 17:44:00,
2013-04-21 13:59:00,50.2,9.5,30.53,North,0,0.0,0.0,19,0.00,,FEW044,0.00,VWS V14.00,2013-04-21 17:59:00,
2013-04-21 14:15:00,53.8,11.3,30.53,North,0,0.0,0.0,18,0.00,,CLR,0.00,VWS V14.00,2013-04-21 18:15:00,
2013-04-21 14:30:00,53.1,10.7,30.53,North,0,0.0,0.0,18,0.00,,CLR,0.00,VWS V14.00,2013-04-21 18:30:00,
2013-04-21 14:45:00,55.0,12.3,30.53,North,0,0.0,0.0,18,0.00,,CLR,0.00,VWS V14.00,2013-04-21 18:45:00,
2013-04-21 15:00:00,55.9,11.8,30.53,North,0,0.0,0.0,17,0.00,,CLR,0.00,VWS V14.00,2013-04-21 19:00:00,
2013-04-21 15:15:00,57.9,13.4,30.53,North,0,0.0,0.0,17,0.00,,CLR,0.00,VWS V14.00,2013-04-21 19:15:00,
2013-04-21 15:30:00,57.9,13.4,30.50,North,0,0.0,0.0,17,0.00,,CLR,0.00,VWS V14.00,2013-04-21 19:30:00,
2013-04-21 15:45:00,55.0,12.3,30.50,North,0,0.0,0.0,18,0.00,,CLR,0.00,VWS V14.00,2013-04-21 19:45:00,
2013-04-21 16:00:00,57.2,12.8,30.50,North,0,0.0,0.0,17,0.00,,CLR,0.00,VWS V14.00,2013-04-21 20:00:00,
2013-04-21 16:15:00,59.4,14.6,30.50,North,0,0.0,0.0,17,0.00,,CLR,0.00,VWS V14.00,2013-04-21 20:15:00,
2013-04-21 16:30:00,58.3,13.7,30.50,North,0,0.0,0.0,17,0.00,,CLR,0.00,VWS V14.00,2013-04-21 20:30:00,
2013-04-21 16:45:00,55.6,11.5,30.50,North,0,0.0,0.0,17,0.00,,CLR,0.00,VWS V14.00,2013-04-21 20:45:00,
2013-04-21 17:00:00,58.8,14.1,30.50,North,0,0.0,0.0,17,0.00,,CLR,0.00,VWS V14.00,2013-04-21 21:00:00,
2013-04-21 17:15:00,59.0,14.3,30.50,North,0,0.0,0.0,17,0.00,,CLR,0.00,VWS V14.00,2013-04-21 21:15:00,
2013-04-21 17:30:00,57.0,12.7,30.50,North,0,0.0,0.0,17,0.00,,CLR,0.00,VWS V14.00,2013-04-21 21:30:00,
2013-04-21 17:45:00,58.6,14.0,30.50,North,0,0.0,0.0,17,0.00,,CLR,0.00,VWS V14.00,2013-04-21 21:45:00,
2013-04-21 18:00:00,58.5,13.8,30.50,North,0,0.0,0.0,17,0.00,,CLR,0.00,VWS V14.00,2013-04-21 22:00:00,
2013-04-21 18:15:00,56.8,12.5,30.50,North,0,0.0,0.0,17,0.00,,CLR,0.00,VWS V14.00,2013-04-21 22:15:00,
2013-04-21 18:30:00,56.8,12.5,30.50,North,0,0.0,0.0,17,0.00,,CLR,0.00,VWS V14.00,2013-04-21 22:30:00,
2013-04-21 18:44:00,55.2,12.5,30.50,North,0,0.0,0.0,18,0.00,,CLR,0.00,VWS V14.00,2013-04-21 22:44:00,
2013-04-21 18:59:00,53.4,11.0,30.50,North,0,0.0,0.0,18,0.00,,CLR,0.00,VWS V14.00,2013-04-21 22:59:00,
2013-04-21 19:14:00,52.3,10.1,30.50,North,0,0.0,0.0,18,0.00,,CLR,0.00,VWS V14.00,2013-04-21 23:14:00,
2013-04-21 19:29:00,52.0,9.8,30.50,North,0,0.0,0.0,18,0.00,,CLR,0.00,VWS V14.00,2013-04-21 23:29:00,
2013-04-21 19:44:00,51.1,10.3,30.50,North,0,0.0,0.0,19,0.00,,CLR,0.00,VWS V14.00,2013-04-21 23:44:00,
2013-04-21 19:59:00,49.6,9.1,30.50,North,0,0.0,0.0,19,0.00,,CLR,0.00,VWS V14.00,2013-04-21 23:59:00,
2013-04-21 20:14:00,46.9,6.8,30.50,North,0,0.0,0.0,19,0.00,,CLR,0.00,VWS V14.00,2013-04-22 00:14:00,
2013-04-21 20:29:00,45.3,6.6,30.50,North,0,0.0,0.0,20,0.00,,CLR,0.00,VWS V14.00,2013-04-22 00:29:00,
2013-04-21 20:44:00,44.2,5.7,30.53,North,0,0.0,0.0,20,0.00,,CLR,0.00,VWS V14.00,2013-04-22 00:44:00,
2013-04-21 20:59:00,43.0,4.7,30.53,North,0,0.0,0.0,20,0.00,,CLR,0.00,VWS V14.00,2013-04-22 00:59:00,
2013-04-21 21:14:00,41.7,4.7,30.53,North,0,0.0,0.0,21,0.00,,CLR,0.00,VWS V14.00,2013-04-22 01:14:00,
2013-04-21 21:29:00,40.6,5.8,30.53,North,0,0.0,0.0,23,0.00,,CLR,0.00,VWS V14.00,2013-04-22 01:29:00,
2013-04-21 21:44:00,39.7,5.0,30.53,North,0,0.0,0.0,23,0.00,,CLR,0.00,VWS V14.00,2013-04-22 01:44:00,
2013-04-21 21:59:00,38.8,6.9,30.53,North,0,0.0,0.0,26,0.00,,CLR,0.00,VWS V14.00,2013-04-22 01:59:00,
2013-04-21 22:14:00,38.7,6.7,30.53,North,0,0.0,0.0,26,0.00,,CLR,0.00,VWS V14.00,2013-04-22 02:14:00,
2013-04-21 22:29:00,37.9,9.3,30.53,North,0,0.0,0.0,30,0.00,,CLR,0.00,VWS V14.00,2013-04-22 02:29:00,
2013-04-21 22:44:00,37.9,9.3,30.53,North,0,0.0,0.0,30,0.00,,CLR,0.00,VWS V14.00,2013-04-22 02:44:00,
2013-04-21 22:59:00,37.9,9.3,30.53,North,0,0.0,0.0,30,0.00,,CLR,0.00,VWS V14.00,2013-04-22 02:59:00,
2013-04-21 23:14:00,37.4,8.8,30.53,North,0,0.0,0.0,30,0.00,,CLR,0.00,VWS V14.00,2013-04-22 03:14:00,
2013-04-21 23:29:00,36.9,8.3,30.53,North,0,0.0,0.0,30,0.00,,CLR,0.00,VWS V14.00,2013-04-22 03:29:00,
2013-04-21 23:44:00,37.0,9.2,30.53,North,0,0.0,0.0,31,0.00,,CLR,0.00,VWS V14.00,2013-04-22 03:44:00,
2013-04-21 23:59:00,36.9,9.8,30.53,North,0,0.0,0.0,32,0.00,,CLR,0.00,VWS V14.00,2013-04-22 03:59:00,